• Processing (Info)

  • MPEC 2019-T124 : 2019 TT2

    The following Minor Planet Electronic Circular may be linked-to from your own Web pages, but must not otherwise be redistributed electronically.

    A form allowing access to any MPEC is at the bottom of this page.


    Read MPEC 2019-T123 Read MPEC 2019-T125


    M.P.E.C. 2019-T124                              Issued 2019 October 7, 15:44 UT
    
         The Minor Planet Electronic Circulars contain information on unusual
             minor planets and routine data on comets.  They are published
        on behalf of Division F of the International Astronomical Union by the
              Minor Planet Center, Smithsonian Astrophysical Observatory,
                              Cambridge, MA 02138, U.S.A.
    
                 Prepared using the Tamkin Foundation Computer Network
    
                                  MPC@CFA.HARVARD.EDU
                URL https://www.minorplanetcenter.net/    ISSN 1523-6714
    
                                    2019 TT2                                 
    
    
    Observations:
         K19T02T  C2019 10 05.48218701 17 21.595+00 51 59.58         18.75GVET124F52
         K19T02T  C2019 10 05.49383501 17 38.143+00 56 10.58         18.76GVET124F52
         K19T02T* C2019 10 06.43404 01 38 52.976+05 45 18.94         19.7 wUET124F52
         K19T02T  C2019 10 06.44582 01 39 05.056+05 48 23.74         19.7 wUET124F52
         K19T02T  C2019 10 06.45762 01 39 17.100+05 51 27.98         19.5 wUET124F52
         K19T02T  C2019 10 07.05747 01 49 41.65 +08 10 37.9          20.5 VVET124033
         K19T02T  C2019 10 07.05836 01 49 42.48 +08 10 49.8          21.1 VVET124033
         K19T02T  C2019 10 07.05924 01 49 43.21 +08 11 00.7          21.0 VVET124033
         K19T02T  C2019 10 07.06011 01 49 44.00 +08 11 12.2          21.2 VVET124033
         K19T02T KC2019 10 07.37243 01 54 28.85 +09 15 41.3          20.0 GVET124734
         K19T02T KC2019 10 07.37552 01 54 31.29 +09 16 16.2          20.1 GVET124734
         K19T02T KC2019 10 07.37861 01 54 33.75 +09 16 53.8          20.3 GVET124734
    
    Observer details:
    033 Karl Schwarzschild Observatory, Tautenburg.  Observers U. Laux, B. 
       Stecklum.  Measurer B. Stecklum.  1.34-m f/3 Schmidt + CCD.
    734 Farpoint Observatory, Eskridge.  Observers G. Hug, D. Cromer, D. Goodin.  
        Measurer D. Cromer.  0.69-m reflector + CCD.
    F52 Pan-STARRS 2, Haleakala.  Observers J. Bulger, K. Chambers, T. Dukes, T. 
       Lowe, E. Magnier, A. Schultz, M. Willman.  Measurers S. Chastel, M. Huber, 
       Y. Ramanjooloo, R. Wainscoat, R. Weryk, K. Chambers, T. de Boer, L. Denneau, 
       J. Fairlamb, H. Flewelling, C.-C. Lin, E. Magnier.  1.8-m Ritchey-Chretien + 
       CCD.
    
    Orbital elements:
    2019 TT2                                                 Earth MOID = 0.0078 AU
    Epoch 2019 Apr. 27.0 TT = JDT 2458600.5                 Bell
    M 319.27477              (2000.0)            P               Q
    n   0.28876582     Peri.  330.72739     +0.97317062     +0.22986354
    a   2.2669339      Node    15.99305     -0.20334009     +0.87973401
    e   0.5643037      Incl.    2.09755     -0.10766497     +0.41621008
    P   3.41           H   27.1           G   0.15           U   7
    Residuals in seconds of arc
    191005 F52  0.0   0.1+    191006 F52  0.1+  0.0     191007 033  0.1-  0.2+
    191005 F52  0.1+  0.2-    191007 033  0.3-  0.3-    191007 734  0.2+  0.2-
    191006 F52  0.1-  0.2+    191007 033  0.3+  0.2+    191007 734  0.1+  1.0-
    191006 F52  0.0   0.1+    191007 033  0.4-  0.2-    191007 734  0.2+  1.0+
    
    Ephemeris:
    2019 TT2                 a,e,i = 2.27, 0.56, 2                   q = 0.9877
    Date    TT    R. A. (2000) Decl.     Delta      r    Elong.  Phase     V
    2019 09 07    15 56 23.7 -31 01 28   0.1277  0.9932    79.8    93.0    25.9
    ...
    2019 09 22    16 41 39.6 -35 46 17   0.05481 0.9919    75.7   101.2    24.5
    ...
    2019 09 30    19 49 57.5 -42 05 34   0.01931 1.0066   104.2    74.7    21.2
    ...
    2019 10 06    01 29 51.5 +03 44 36   0.02477 1.0243   168.7    11.0    19.8
    2019 10 07    01 48 49.6 +08 01 29   0.02904 1.0277   164.7    14.8    20.3
    2019 10 08    02 03 00.8 +11 08 39   0.03359 1.0313   161.6    17.8    20.7
    ...
    2019 10 14    02 43 26.2 +19 27 59   0.06345 1.0557   155.4    23.1    22.3
    ...
    2019 10 22    02 59 12.0 +22 33 10   0.1062  1.0950   158.5    19.4    23.4
    ...
    2019 11 06    03 04 04.6 +23 39 49   0.1960  1.1852   170.6     7.9    24.5
    
    A. U. Tomatic                (C) Copyright 2019 MPC           M.P.E.C. 2019-T124
    


    Read MPEC 2019-T123 Read MPEC 2019-T125


    MPEC number:

    Enter an MPEC number in one of the following forms:

    • 1997-B01 (the full form)
    • J97B01 (the packed version of the full form)
    • B01 (the abbreviated form)